Year,Month,Day,Hour,Minute,Value (Times are PST for temperature in C)
2020,01,20,00,00,25.60
2020,01,20,00,01,25.60
2020,01,20,00,02,25.60
2020,01,20,00,03,25.60
2020,01,20,00,04,25.60
2020,01,20,00,05,25.60
2020,01,20,00,06,25.70
2020,01,20,00,07,25.70
2020,01,20,00,08,25.70
2020,01,20,00,09,25.70
2020,01,20,00,10,25.80
2020,01,20,00,11,26.00
2020,01,20,00,12,26.30
2020,01,20,00,13,26.50
2020,01,20,00,14,26.70
2020,01,20,00,15,26.70
2020,01,20,00,16,26.60
2020,01,20,00,17,26.50
2020,01,20,00,18,26.40
2020,01,20,00,19,26.30
2020,01,20,00,20,26.30
2020,01,20,00,21,26.20
2020,01,20,00,22,26.20
2020,01,20,00,23,26.20
2020,01,20,00,24,26.20
2020,01,20,00,25,26.20
2020,01,20,00,26,26.30
2020,01,20,00,27,26.40
2020,01,20,00,28,26.50
2020,01,20,00,29,26.80
2020,01,20,00,30,27.20
2020,01,20,00,31,27.40
2020,01,20,00,32,27.40
2020,01,20,00,33,27.50
2020,01,20,00,34,27.50
2020,01,20,00,35,27.50
2020,01,20,00,36,27.60
2020,01,20,00,37,27.60
2020,01,20,00,38,27.60
2020,01,20,00,39,27.60
2020,01,20,00,40,27.60
2020,01,20,00,41,27.70
2020,01,20,00,42,27.70
2020,01,20,00,43,27.70
2020,01,20,00,44,27.80
2020,01,20,00,45,27.80
2020,01,20,00,46,28.00
2020,01,20,00,47,28.30
2020,01,20,00,48,28.90
2020,01,20,00,49,29.50
2020,01,20,00,50,30.20
2020,01,20,00,51,30.90
2020,01,20,00,52,31.40
2020,01,20,00,53,31.70
2020,01,20,00,54,31.90
2020,01,20,00,55,32.10
2020,01,20,00,56,32.30
2020,01,20,00,57,32.50
2020,01,20,00,58,32.50
2020,01,20,00,59,32.50
2020,01,20,01,00,32.50
2020,01,20,01,01,32.50
2020,01,20,01,02,32.50
2020,01,20,01,03,32.40
2020,01,20,01,04,32.40
2020,01,20,01,05,32.40
2020,01,20,01,06,32.40
2020,01,20,01,07,32.30
2020,01,20,01,08,32.40
2020,01,20,01,09,32.40
2020,01,20,01,10,32.40
2020,01,20,01,11,32.40
2020,01,20,01,12,32.40
2020,01,20,01,13,32.40
2020,01,20,01,14,32.40
2020,01,20,01,15,32.40
2020,01,20,01,16,32.40
2020,01,20,01,17,32.40
2020,01,20,01,18,32.40
2020,01,20,01,19,32.40
2020,01,20,01,20,32.30
2020,01,20,01,21,32.30
2020,01,20,01,22,32.40
2020,01,20,01,23,32.40
2020,01,20,01,24,32.40
2020,01,20,01,25,32.40
2020,01,20,01,26,32.40
2020,01,20,01,27,32.40
2020,01,20,01,28,32.40
2020,01,20,01,29,32.40
2020,01,20,01,30,32.40
2020,01,20,01,31,32.40
2020,01,20,01,32,32.30
2020,01,20,01,33,32.30
2020,01,20,01,34,32.30
2020,01,20,01,35,32.30
2020,01,20,01,36,32.20
2020,01,20,01,37,32.20
2020,01,20,01,38,32.10
2020,01,20,01,39,32.10
2020,01,20,01,40,32.10
2020,01,20,01,41,32.10
2020,01,20,01,42,32.00
2020,01,20,01,43,32.00
2020,01,20,01,44,31.90
2020,01,20,01,45,31.90
2020,01,20,01,46,31.90
2020,01,20,01,47,31.90
2020,01,20,01,48,31.90
2020,01,20,01,49,31.90
2020,01,20,01,50,31.90
2020,01,20,01,51,31.90
2020,01,20,01,52,31.90
2020,01,20,01,53,31.90
2020,01,20,01,54,31.90
2020,01,20,01,55,31.90
2020,01,20,01,56,31.90
2020,01,20,01,57,31.90
2020,01,20,01,58,31.80
2020,01,20,01,59,31.90
2020,01,20,02,00,31.90
2020,01,20,02,01,31.80
2020,01,20,02,02,31.80
2020,01,20,02,03,31.80
2020,01,20,02,04,31.80
2020,01,20,02,05,31.80
2020,01,20,02,06,31.80
2020,01,20,02,07,31.70
2020,01,20,02,08,31.70
2020,01,20,02,09,31.70
2020,01,20,02,10,31.80
2020,01,20,02,11,31.80
2020,01,20,02,12,31.80
2020,01,20,02,13,31.80
2020,01,20,02,14,31.80
2020,01,20,02,15,31.80
2020,01,20,02,16,31.70
2020,01,20,02,17,31.70
2020,01,20,02,18,31.60
2020,01,20,02,19,31.60
2020,01,20,02,20,31.60
2020,01,20,02,21,31.60
2020,01,20,02,22,31.60
2020,01,20,02,23,31.60
2020,01,20,02,24,31.60
2020,01,20,02,25,31.60
2020,01,20,02,26,31.70
2020,01,20,02,27,31.70
2020,01,20,02,28,31.70
2020,01,20,02,29,31.70
2020,01,20,02,30,31.70
2020,01,20,02,31,31.70
2020,01,20,02,32,31.70
2020,01,20,02,33,31.60
2020,01,20,02,34,31.60
2020,01,20,02,35,31.60
2020,01,20,02,36,31.60
2020,01,20,02,37,31.60
2020,01,20,02,38,31.60
2020,01,20,02,39,31.50
2020,01,20,02,40,31.50
2020,01,20,02,41,31.50
2020,01,20,02,42,31.50
2020,01,20,02,43,31.60
2020,01,20,02,44,31.60
2020,01,20,02,45,31.60
2020,01,20,02,46,31.60
2020,01,20,02,47,31.60
2020,01,20,02,48,31.60
2020,01,20,02,49,31.70
2020,01,20,02,50,31.60
2020,01,20,02,51,31.60
2020,01,20,02,52,31.50
2020,01,20,02,53,31.50
2020,01,20,02,54,31.40
2020,01,20,02,55,31.40
2020,01,20,02,56,31.40
2020,01,20,02,57,31.40
2020,01,20,02,58,31.30
2020,01,20,02,59,31.30
2020,01,20,03,00,31.30
2020,01,20,03,01,31.30
2020,01,20,03,02,31.30
2020,01,20,03,03,31.40
2020,01,20,03,04,31.40
2020,01,20,03,05,31.40
2020,01,20,03,06,31.30
2020,01,20,03,07,31.30
2020,01,20,03,08,31.30
2020,01,20,03,09,31.30
2020,01,20,03,10,31.30
2020,01,20,03,11,31.20
2020,01,20,03,12,31.30
2020,01,20,03,13,31.20
2020,01,20,03,14,31.20
2020,01,20,03,15,31.20
2020,01,20,03,16,31.20
2020,01,20,03,17,31.20
2020,01,20,03,18,31.20
2020,01,20,03,19,31.20
2020,01,20,03,20,31.20
2020,01,20,03,21,31.20
2020,01,20,03,22,31.20
2020,01,20,03,23,31.20
2020,01,20,03,24,31.20
2020,01,20,03,25,31.20
2020,01,20,03,26,31.20
2020,01,20,03,27,31.10
2020,01,20,03,28,31.10
2020,01,20,03,29,31.10
2020,01,20,03,30,31.10
2020,01,20,03,31,31.10
2020,01,20,03,32,31.20
2020,01,20,03,33,31.20
2020,01,20,03,34,31.20
2020,01,20,03,35,31.20
2020,01,20,03,36,31.20
2020,01,20,03,37,31.20
2020,01,20,03,38,31.20
2020,01,20,03,39,31.20
2020,01,20,03,40,31.20
2020,01,20,03,41,31.20
2020,01,20,03,42,31.20
2020,01,20,03,43,31.20
2020,01,20,03,44,31.10
2020,01,20,03,45,31.20
2020,01,20,03,46,31.10
2020,01,20,03,47,31.10
2020,01,20,03,48,31.10
2020,01,20,03,49,31.10
2020,01,20,03,50,31.10
2020,01,20,03,51,31.10
2020,01,20,03,52,31.10
2020,01,20,03,53,31.10
2020,01,20,03,54,31.10
2020,01,20,03,55,31.10
2020,01,20,03,56,31.20
2020,01,20,03,57,31.20
2020,01,20,03,58,31.20
2020,01,20,03,59,31.10
2020,01,20,04,00,31.10
2020,01,20,04,01,31.10
2020,01,20,04,02,31.10
2020,01,20,04,03,31.10
2020,01,20,04,04,31.10
2020,01,20,04,05,31.10
2020,01,20,04,06,31.10
2020,01,20,04,07,31.10
2020,01,20,04,08,31.10
2020,01,20,04,09,31.10
2020,01,20,04,10,31.10
2020,01,20,04,11,31.10
2020,01,20,04,12,31.10
2020,01,20,04,13,31.00
2020,01,20,04,14,31.00
2020,01,20,04,15,31.00
2020,01,20,04,16,31.00
2020,01,20,04,17,31.00
2020,01,20,04,18,31.00
2020,01,20,04,19,31.10
2020,01,20,04,20,31.10
2020,01,20,04,21,31.10
2020,01,20,04,22,31.10
2020,01,20,04,23,31.10
2020,01,20,04,24,31.10
2020,01,20,04,25,31.10
2020,01,20,04,26,31.10
2020,01,20,04,27,31.10
2020,01,20,04,28,31.20
2020,01,20,04,29,31.30
2020,01,20,04,30,31.40
2020,01,20,04,31,31.40
2020,01,20,04,32,31.40
2020,01,20,04,33,31.30
2020,01,20,04,34,31.30
2020,01,20,04,35,31.30
2020,01,20,04,36,31.30
2020,01,20,04,37,31.20
2020,01,20,04,38,31.20
2020,01,20,04,39,31.10
2020,01,20,04,40,31.10
2020,01,20,04,41,31.00
2020,01,20,04,42,31.00
2020,01,20,04,43,30.90
2020,01,20,04,44,30.80
2020,01,20,04,45,30.70
2020,01,20,04,46,30.60
2020,01,20,04,47,30.50
2020,01,20,04,48,30.40
2020,01,20,04,49,30.30
2020,01,20,04,50,30.30
2020,01,20,04,51,30.20
2020,01,20,04,52,30.10
2020,01,20,04,53,30.10
2020,01,20,04,54,30.00
2020,01,20,04,55,29.90
2020,01,20,04,56,29.90
2020,01,20,04,57,29.90
2020,01,20,04,58,29.80
2020,01,20,04,59,29.70
2020,01,20,05,00,29.70
2020,01,20,05,01,29.60
2020,01,20,05,02,29.60
2020,01,20,05,03,29.60
2020,01,20,05,04,29.50
2020,01,20,05,05,29.50
2020,01,20,05,06,29.50
2020,01,20,05,07,29.40
2020,01,20,05,08,29.40
2020,01,20,05,09,29.40
2020,01,20,05,10,29.30
2020,01,20,05,11,29.30
2020,01,20,05,12,29.30
2020,01,20,05,13,29.30
2020,01,20,05,14,29.30
2020,01,20,05,15,29.30
2020,01,20,05,16,29.30
2020,01,20,05,17,29.30
2020,01,20,05,18,29.20
2020,01,20,05,19,29.20
2020,01,20,05,20,29.30
2020,01,20,05,21,29.30
2020,01,20,05,22,29.30
2020,01,20,05,23,29.30
2020,01,20,05,24,29.40
2020,01,20,05,25,29.40
2020,01,20,05,26,29.40
2020,01,20,05,27,29.40
2020,01,20,05,28,29.40
2020,01,20,05,29,29.40
2020,01,20,05,30,29.40
2020,01,20,05,31,29.40
2020,01,20,05,32,29.50
2020,01,20,05,33,29.50
2020,01,20,05,34,29.50
2020,01,20,05,35,29.50
2020,01,20,05,36,29.60
2020,01,20,05,37,29.60
2020,01,20,05,38,29.60
2020,01,20,05,39,29.60
2020,01,20,05,40,29.60
2020,01,20,05,41,29.60
2020,01,20,05,42,29.70
2020,01,20,05,43,29.70
2020,01,20,05,44,29.70
2020,01,20,05,45,29.70
2020,01,20,05,46,29.70
2020,01,20,05,47,29.80
2020,01,20,05,48,29.80
2020,01,20,05,49,29.80
2020,01,20,05,50,29.80
2020,01,20,05,51,29.80
2020,01,20,05,52,29.80
2020,01,20,05,53,29.80
2020,01,20,05,54,29.80
2020,01,20,05,55,29.80
2020,01,20,05,56,29.80
2020,01,20,05,57,29.80
2020,01,20,05,58,29.80
2020,01,20,05,59,29.80
2020,01,20,06,00,29.90
2020,01,20,06,01,29.90
2020,01,20,06,02,29.80
2020,01,20,06,03,29.80
2020,01,20,06,04,29.90
2020,01,20,06,05,29.90
2020,01,20,06,06,29.90
2020,01,20,06,07,29.90
2020,01,20,06,08,29.90
2020,01,20,06,09,29.90
2020,01,20,06,10,29.90
2020,01,20,06,11,29.90
2020,01,20,06,12,29.90
2020,01,20,06,13,29.90
2020,01,20,06,14,29.90
2020,01,20,06,15,29.90
2020,01,20,06,16,29.90
2020,01,20,06,17,29.90
2020,01,20,06,18,29.90
2020,01,20,06,19,29.90
2020,01,20,06,20,29.80
2020,01,20,06,21,29.80
2020,01,20,06,22,29.80
2020,01,20,06,23,29.80
2020,01,20,06,24,29.80
2020,01,20,06,25,29.80
2020,01,20,06,26,29.80
2020,01,20,06,27,29.80
2020,01,20,06,28,29.80
2020,01,20,06,29,29.80
2020,01,20,06,30,29.80
2020,01,20,06,31,29.80
2020,01,20,06,32,29.80
2020,01,20,06,33,29.80
2020,01,20,06,34,29.80
2020,01,20,06,35,29.80
2020,01,20,06,36,29.80
2020,01,20,06,37,29.80
2020,01,20,06,38,29.80
2020,01,20,06,39,29.80
2020,01,20,06,40,29.80
2020,01,20,06,41,29.80
2020,01,20,06,42,29.80
2020,01,20,06,43,29.80
2020,01,20,06,44,29.80
2020,01,20,06,45,29.80
2020,01,20,06,46,29.80
2020,01,20,06,47,29.80
2020,01,20,06,48,29.80
2020,01,20,06,49,29.80
2020,01,20,06,50,29.80
2020,01,20,06,51,29.80
2020,01,20,06,52,29.80
2020,01,20,06,53,29.80
2020,01,20,06,54,29.80
2020,01,20,06,55,29.80
2020,01,20,06,56,29.80
2020,01,20,06,57,29.80
2020,01,20,06,58,29.80
2020,01,20,06,59,29.80
2020,01,20,07,00,29.80
2020,01,20,07,01,29.80
2020,01,20,07,02,29.80
2020,01,20,07,03,29.80
2020,01,20,07,04,29.80
2020,01,20,07,05,29.80
2020,01,20,07,06,29.80
2020,01,20,07,07,29.80
2020,01,20,07,08,29.80
2020,01,20,07,09,29.80
2020,01,20,07,10,29.80
2020,01,20,07,11,29.80
2020,01,20,07,12,29.80
2020,01,20,07,13,29.80
2020,01,20,07,14,29.90
2020,01,20,07,15,29.90
2020,01,20,07,16,29.90
2020,01,20,07,17,29.90
2020,01,20,07,18,29.90
2020,01,20,07,19,29.90
2020,01,20,07,20,30.00
2020,01,20,07,21,30.00
2020,01,20,07,22,30.10
2020,01,20,07,23,30.10
2020,01,20,07,24,30.10
2020,01,20,07,25,30.10
2020,01,20,07,26,30.10
2020,01,20,07,27,30.10
2020,01,20,07,28,30.10
2020,01,20,07,29,30.00
2020,01,20,07,30,30.00
2020,01,20,07,31,30.00
2020,01,20,07,32,30.00
2020,01,20,07,33,30.00
2020,01,20,07,34,29.90
2020,01,20,07,35,29.90
2020,01,20,07,36,29.90
2020,01,20,07,37,29.80
2020,01,20,07,38,29.80
2020,01,20,07,39,29.80
2020,01,20,07,40,29.80
2020,01,20,07,41,29.80
2020,01,20,07,42,29.80
2020,01,20,07,43,29.80
2020,01,20,07,44,29.70
2020,01,20,07,45,29.70
2020,01,20,07,46,29.70
2020,01,20,07,47,29.70
2020,01,20,07,48,29.60
2020,01,20,07,49,29.60
2020,01,20,07,50,29.60
2020,01,20,07,51,29.60
2020,01,20,07,52,29.60
2020,01,20,07,53,29.60
2020,01,20,07,54,29.60
2020,01,20,07,55,29.60
2020,01,20,07,56,29.60
2020,01,20,07,57,29.50
2020,01,20,07,58,29.50
2020,01,20,07,59,29.50
2020,01,20,08,00,29.50
2020,01,20,08,01,29.50
2020,01,20,08,02,29.40
2020,01,20,08,03,29.40
2020,01,20,08,04,29.40
2020,01,20,08,05,29.40
2020,01,20,08,06,29.40
2020,01,20,08,07,29.40
2020,01,20,08,08,29.40
2020,01,20,08,09,29.40
2020,01,20,08,10,29.40
2020,01,20,08,11,29.30
2020,01,20,08,12,29.30
2020,01,20,08,13,29.30
2020,01,20,08,14,29.30
2020,01,20,08,15,29.30
2020,01,20,08,16,29.30
2020,01,20,08,17,29.30
2020,01,20,08,18,29.30
2020,01,20,08,19,29.30
2020,01,20,08,20,29.30
2020,01,20,08,21,29.30
2020,01,20,08,22,29.30
2020,01,20,08,23,29.30
2020,01,20,08,24,29.30
2020,01,20,08,25,29.30
2020,01,20,08,26,29.30
2020,01,20,08,27,29.30
2020,01,20,08,28,29.30
2020,01,20,08,29,29.30
2020,01,20,08,30,29.30
2020,01,20,08,31,29.30
2020,01,20,08,32,29.30
2020,01,20,08,33,29.30
2020,01,20,08,34,29.30
2020,01,20,08,35,29.30
2020,01,20,08,36,29.30
2020,01,20,08,37,29.30
2020,01,20,08,38,29.30
2020,01,20,08,39,29.30
2020,01,20,08,40,29.30
2020,01,20,08,41,29.20
2020,01,20,08,42,29.20
2020,01,20,08,43,29.20
2020,01,20,08,44,29.20
2020,01,20,08,45,29.20
2020,01,20,08,46,29.10
2020,01,20,08,47,29.10
2020,01,20,08,48,29.10
2020,01,20,08,49,29.10
2020,01,20,08,50,29.20
2020,01,20,08,51,29.20
2020,01,20,08,52,29.20
2020,01,20,08,53,29.20
2020,01,20,08,54,29.20
2020,01,20,08,55,29.20
2020,01,20,08,56,29.10
2020,01,20,08,57,29.10
2020,01,20,08,58,29.10
2020,01,20,08,59,29.20
2020,01,20,09,00,29.20
2020,01,20,09,01,29.20
2020,01,20,09,02,29.20
2020,01,20,09,03,29.20
2020,01,20,09,04,29.10
2020,01,20,09,05,29.10
2020,01,20,09,06,29.10
2020,01,20,09,07,29.10
2020,01,20,09,08,29.10
2020,01,20,09,09,29.10
2020,01,20,09,10,29.10
2020,01,20,09,11,29.10
2020,01,20,09,12,29.10
2020,01,20,09,13,29.10
2020,01,20,09,14,29.00
2020,01,20,09,15,29.00
2020,01,20,09,16,28.90
2020,01,20,09,17,28.80
2020,01,20,09,18,28.80
2020,01,20,09,19,28.80
2020,01,20,09,20,28.70
2020,01,20,09,21,28.70
2020,01,20,09,22,28.70
2020,01,20,09,23,28.60
2020,01,20,09,24,28.60
2020,01,20,09,25,28.60
2020,01,20,09,26,28.50
2020,01,20,09,27,28.50
2020,01,20,09,28,28.50
2020,01,20,09,29,28.40
2020,01,20,09,30,28.40
2020,01,20,09,31,28.40
2020,01,20,09,32,28.40
2020,01,20,09,33,28.40
2020,01,20,09,34,28.40
2020,01,20,09,35,28.40
2020,01,20,09,36,28.40
2020,01,20,09,37,28.30
2020,01,20,09,38,28.30
2020,01,20,09,39,28.30
2020,01,20,09,40,28.30
2020,01,20,09,41,28.30
2020,01,20,09,42,28.30
2020,01,20,09,43,28.20
2020,01,20,09,44,28.20
2020,01,20,09,45,28.20
2020,01,20,09,46,28.10
2020,01,20,09,47,28.10
2020,01,20,09,48,28.00
2020,01,20,09,49,28.00
2020,01,20,09,50,27.90
2020,01,20,09,51,27.90
2020,01,20,09,52,27.90
2020,01,20,09,53,27.80
2020,01,20,09,54,27.80
2020,01,20,09,55,27.80
2020,01,20,09,56,27.80
2020,01,20,09,57,27.80
2020,01,20,09,58,27.80
2020,01,20,09,59,27.70
2020,01,20,10,00,27.70
2020,01,20,10,01,27.70
2020,01,20,10,02,27.70
2020,01,20,10,03,27.70
2020,01,20,10,04,27.70
2020,01,20,10,05,27.70
2020,01,20,10,06,27.70
2020,01,20,10,07,27.70
2020,01,20,10,08,27.70
2020,01,20,10,09,27.70
2020,01,20,10,10,27.70
2020,01,20,10,11,27.70
2020,01,20,10,12,27.60
2020,01,20,10,13,27.60
2020,01,20,10,14,27.60
2020,01,20,10,15,27.60
2020,01,20,10,16,27.60
2020,01,20,10,17,27.60
2020,01,20,10,18,27.60
2020,01,20,10,19,27.60
2020,01,20,10,20,27.60
2020,01,20,10,21,27.60
2020,01,20,10,22,27.70
2020,01,20,10,23,27.70
2020,01,20,10,24,27.70
2020,01,20,10,25,27.70
2020,01,20,10,26,27.70
2020,01,20,10,27,27.70
2020,01,20,10,28,27.70
2020,01,20,10,29,27.70
2020,01,20,10,30,27.70
2020,01,20,10,31,27.70
2020,01,20,10,32,27.70
2020,01,20,10,33,27.70
2020,01,20,10,34,27.70
2020,01,20,10,35,27.70
2020,01,20,10,36,27.70
2020,01,20,10,37,27.70
2020,01,20,10,38,27.70
2020,01,20,10,39,27.70
2020,01,20,10,40,27.70
2020,01,20,10,41,27.70
2020,01,20,10,42,27.70
2020,01,20,10,43,27.70
2020,01,20,10,44,27.60
2020,01,20,10,45,27.60
2020,01,20,10,46,27.60
2020,01,20,10,47,27.60
2020,01,20,10,48,27.60
2020,01,20,10,49,27.60
2020,01,20,10,50,27.60
2020,01,20,10,51,27.50
2020,01,20,10,52,27.50
2020,01,20,10,53,27.50
2020,01,20,10,54,27.50
2020,01,20,10,55,27.40
2020,01,20,10,56,27.40
2020,01,20,10,57,27.40
2020,01,20,10,58,27.30
2020,01,20,10,59,27.30
2020,01,20,11,00,27.30
2020,01,20,11,01,27.20
2020,01,20,11,02,27.20
2020,01,20,11,03,27.20
2020,01,20,11,04,27.20
2020,01,20,11,05,27.20
2020,01,20,11,06,27.20
2020,01,20,11,07,27.20
2020,01,20,11,08,27.20
2020,01,20,11,09,27.20
2020,01,20,11,10,27.20
2020,01,20,11,11,27.10
2020,01,20,11,12,27.10
2020,01,20,11,13,27.10
2020,01,20,11,14,27.10
2020,01,20,11,15,27.10
2020,01,20,11,16,27.00
2020,01,20,11,17,27.00
2020,01,20,11,18,27.00
2020,01,20,11,19,27.00
2020,01,20,11,20,27.00
2020,01,20,11,21,27.00
2020,01,20,11,22,27.00
2020,01,20,11,23,27.00
2020,01,20,11,24,26.90
2020,01,20,11,25,26.90
2020,01,20,11,26,26.90
2020,01,20,11,27,26.90
2020,01,20,11,28,26.90
2020,01,20,11,29,26.90
2020,01,20,11,30,26.90
2020,01,20,11,31,26.90
2020,01,20,11,32,26.90
2020,01,20,11,33,27.00
2020,01,20,11,34,27.00
2020,01,20,11,35,27.10
2020,01,20,11,36,27.20
2020,01,20,11,37,27.30
2020,01,20,11,38,27.40
2020,01,20,11,39,27.50
2020,01,20,11,40,27.60
2020,01,20,11,41,27.60
2020,01,20,11,42,27.70
2020,01,20,11,43,27.70
2020,01,20,11,44,27.70
2020,01,20,11,45,27.70
2020,01,20,11,46,27.80
2020,01,20,11,47,27.90
2020,01,20,11,48,28.00
2020,01,20,11,49,28.10
2020,01,20,11,50,28.20
2020,01,20,11,51,28.20
2020,01,20,11,52,28.30
2020,01,20,11,53,28.30
2020,01,20,11,54,28.30
2020,01,20,11,55,28.30
2020,01,20,11,56,28.20
2020,01,20,11,57,28.20
2020,01,20,11,58,28.20
2020,01,20,11,59,28.30
2020,01,20,12,00,28.30
2020,01,20,12,01,28.30
2020,01,20,12,02,28.40
2020,01,20,12,03,28.40
2020,01,20,12,04,28.50
2020,01,20,12,05,28.60
2020,01,20,12,06,28.70
2020,01,20,12,07,28.80
2020,01,20,12,08,28.90
2020,01,20,12,09,29.00
2020,01,20,12,10,29.10
2020,01,20,12,11,29.20
2020,01,20,12,12,29.20
2020,01,20,12,13,29.30
2020,01,20,12,14,29.40
2020,01,20,12,15,29.50
2020,01,20,12,16,29.60
2020,01,20,12,17,29.60
2020,01,20,12,18,29.70
2020,01,20,12,19,29.70
2020,01,20,12,20,29.80
2020,01,20,12,21,29.90
2020,01,20,12,22,29.90
2020,01,20,12,23,29.80
2020,01,20,12,24,29.80
2020,01,20,12,25,29.80
2020,01,20,12,26,29.70
2020,01,20,12,27,29.70
2020,01,20,12,28,29.70
2020,01,20,12,29,29.60
2020,01,20,12,30,29.60
2020,01,20,12,31,29.50
2020,01,20,12,32,29.50
2020,01,20,12,33,29.50
2020,01,20,12,34,29.50
2020,01,20,12,35,29.50
2020,01,20,12,36,29.40
2020,01,20,12,37,29.40
2020,01,20,12,38,29.30
2020,01,20,12,39,29.20
2020,01,20,12,40,29.10
2020,01,20,12,41,29.10
2020,01,20,12,42,29.00
2020,01,20,12,43,28.90
2020,01,20,12,44,28.90
2020,01,20,12,45,28.80
2020,01,20,12,46,28.80
2020,01,20,12,47,28.80
2020,01,20,12,48,28.80
2020,01,20,12,49,28.80
2020,01,20,12,50,28.80
2020,01,20,12,51,28.80
2020,01,20,12,52,28.80
2020,01,20,12,53,28.80
2020,01,20,12,54,28.80
2020,01,20,12,55,28.90
2020,01,20,12,56,29.00
2020,01,20,12,57,29.10
2020,01,20,12,58,29.10
2020,01,20,12,59,29.20
2020,01,20,13,00,29.20
2020,01,20,13,01,29.20
2020,01,20,13,02,29.20
2020,01,20,13,03,29.20
2020,01,20,13,04,29.30
2020,01,20,13,05,29.30
2020,01,20,13,06,29.30
2020,01,20,13,07,29.40
2020,01,20,13,08,29.40
2020,01,20,13,09,29.40
2020,01,20,13,10,29.30
2020,01,20,13,11,29.30
2020,01,20,13,12,29.20
2020,01,20,13,13,29.20
2020,01,20,13,14,29.10
2020,01,20,13,15,29.10
2020,01,20,13,16,29.10
2020,01,20,13,17,29.10
2020,01,20,13,18,29.10
2020,01,20,13,19,29.10
2020,01,20,13,20,29.20
2020,01,20,13,21,29.20
2020,01,20,13,22,29.30
2020,01,20,13,23,29.30
2020,01,20,13,24,29.40
2020,01,20,13,25,29.40
2020,01,20,13,26,29.40
2020,01,20,13,27,29.40
2020,01,20,13,28,29.40
2020,01,20,13,29,29.40
2020,01,20,13,30,29.30
2020,01,20,13,31,29.30
2020,01,20,13,32,29.30
2020,01,20,13,33,29.20
2020,01,20,13,34,29.20
2020,01,20,13,35,29.20
2020,01,20,13,36,29.20
2020,01,20,13,37,29.20
2020,01,20,13,38,29.20
2020,01,20,13,39,29.20
2020,01,20,13,40,29.20
2020,01,20,13,41,29.20
2020,01,20,13,42,29.20
2020,01,20,13,43,29.20
2020,01,20,13,44,29.20
2020,01,20,13,45,29.20
2020,01,20,13,46,29.20
2020,01,20,13,47,29.20
2020,01,20,13,48,29.20
2020,01,20,13,49,29.20
2020,01,20,13,50,29.30
2020,01,20,13,51,29.30
2020,01,20,13,52,29.30
2020,01,20,13,53,29.40
2020,01,20,13,54,29.40
2020,01,20,13,55,29.40
2020,01,20,13,56,29.40
2020,01,20,13,57,29.50
2020,01,20,13,58,29.50
2020,01,20,13,59,29.60
2020,01,20,14,00,29.60
2020,01,20,14,01,29.60
2020,01,20,14,02,29.60
2020,01,20,14,03,29.60
2020,01,20,14,04,29.60
2020,01,20,14,05,29.60
2020,01,20,14,06,29.60
2020,01,20,14,07,29.60
2020,01,20,14,08,29.60
2020,01,20,14,09,29.60
2020,01,20,14,10,29.50
2020,01,20,14,11,29.50
2020,01,20,14,12,29.60
2020,01,20,14,13,29.70
2020,01,20,14,14,29.70
2020,01,20,14,15,29.80
2020,01,20,14,16,29.90
2020,01,20,14,17,29.80
2020,01,20,14,18,29.80
2020,01,20,14,19,29.70
2020,01,20,14,20,29.70
2020,01,20,14,21,29.60
2020,01,20,14,22,29.60
2020,01,20,14,23,29.60
2020,01,20,14,24,29.60
2020,01,20,14,25,29.50
2020,01,20,14,26,29.50
2020,01,20,14,27,29.50
2020,01,20,14,28,29.50
2020,01,20,14,29,29.50
2020,01,20,14,30,29.60
2020,01,20,14,31,29.60
2020,01,20,14,32,29.70
2020,01,20,14,33,29.70
2020,01,20,14,34,29.80
2020,01,20,14,35,29.90
2020,01,20,14,36,29.90
2020,01,20,14,37,29.90
2020,01,20,14,38,29.80
2020,01,20,14,39,29.80
2020,01,20,14,40,29.80
2020,01,20,14,41,29.80
2020,01,20,14,42,29.80
2020,01,20,14,43,29.80
2020,01,20,14,44,29.80
2020,01,20,14,45,29.80
2020,01,20,14,46,29.70
2020,01,20,14,47,29.70
2020,01,20,14,48,29.60
2020,01,20,14,49,29.60
2020,01,20,14,50,29.60
2020,01,20,14,51,29.60
2020,01,20,14,52,29.60
2020,01,20,14,53,29.60
2020,01,20,14,54,29.60
2020,01,20,14,55,29.60
2020,01,20,14,56,29.50
2020,01,20,14,57,29.40
2020,01,20,14,58,29.40
2020,01,20,14,59,29.30
2020,01,20,15,00,29.30
2020,01,20,15,01,29.20
2020,01,20,15,02,29.20
2020,01,20,15,03,29.20
2020,01,20,15,04,29.20
2020,01,20,15,05,29.20
2020,01,20,15,06,29.20
2020,01,20,15,07,29.20
2020,01,20,15,08,29.20
2020,01,20,15,09,29.20
2020,01,20,15,10,29.20
2020,01,20,15,11,29.30
2020,01,20,15,12,29.30
2020,01,20,15,13,29.20
2020,01,20,15,14,29.20
2020,01,20,15,15,29.20
2020,01,20,15,16,29.10
2020,01,20,15,17,29.00
2020,01,20,15,18,28.90
2020,01,20,15,19,28.80
2020,01,20,15,20,28.80
2020,01,20,15,21,28.80
2020,01,20,15,22,28.70
2020,01,20,15,23,28.70
2020,01,20,15,24,28.70
2020,01,20,15,25,28.60
2020,01,20,15,26,28.50
2020,01,20,15,27,28.50
2020,01,20,15,28,28.50
2020,01,20,15,29,28.50
2020,01,20,15,30,28.60
2020,01,20,15,31,28.60
2020,01,20,15,32,28.60
2020,01,20,15,33,28.60
2020,01,20,15,34,28.60
2020,01,20,15,35,28.60
2020,01,20,15,36,28.60
2020,01,20,15,37,28.60
2020,01,20,15,38,28.60
2020,01,20,15,39,28.60
2020,01,20,15,40,28.70
2020,01,20,15,41,28.70
2020,01,20,15,42,28.70
2020,01,20,15,43,28.60
2020,01,20,15,44,28.50
2020,01,20,15,45,28.40
2020,01,20,15,46,28.40
2020,01,20,15,47,28.30
2020,01,20,15,48,28.30
2020,01,20,15,49,28.30
2020,01,20,15,50,28.20
2020,01,20,15,51,28.20
2020,01,20,15,52,28.20
2020,01,20,15,53,28.10
2020,01,20,15,54,28.10
2020,01,20,15,55,28.00
2020,01,20,15,56,27.90
2020,01,20,15,57,27.80
2020,01,20,15,58,27.80
2020,01,20,15,59,27.70
2020,01,20,16,00,27.70
2020,01,20,16,01,27.60
2020,01,20,16,02,27.60
2020,01,20,16,03,27.50
2020,01,20,16,04,27.50
2020,01,20,16,05,27.50
2020,01,20,16,06,27.40
2020,01,20,16,07,27.40
2020,01,20,16,08,27.40
2020,01,20,16,09,27.40
2020,01,20,16,10,27.30
2020,01,20,16,11,27.30
2020,01,20,16,12,27.30
2020,01,20,16,13,27.20
2020,01,20,16,14,27.20
2020,01,20,16,15,27.20
2020,01,20,16,16,27.20
2020,01,20,16,17,27.20
2020,01,20,16,18,27.10
2020,01,20,16,19,27.10
2020,01,20,16,20,27.10
2020,01,20,16,21,27.00
2020,01,20,16,22,27.00
2020,01,20,16,23,26.90
2020,01,20,16,24,26.80
2020,01,20,16,25,26.80
2020,01,20,16,26,26.80
2020,01,20,16,27,26.70
2020,01,20,16,28,26.70
2020,01,20,16,29,26.70
2020,01,20,16,30,26.60
2020,01,20,16,31,26.60
2020,01,20,16,32,26.60
2020,01,20,16,33,26.60
2020,01,20,16,34,26.60
2020,01,20,16,35,26.60
2020,01,20,16,36,26.60
2020,01,20,16,37,26.60
2020,01,20,16,38,26.60
2020,01,20,16,39,26.50
2020,01,20,16,40,26.50
2020,01,20,16,41,26.40
2020,01,20,16,42,26.40
2020,01,20,16,43,26.40
2020,01,20,16,44,26.40
2020,01,20,16,45,26.40
2020,01,20,16,46,26.30
2020,01,20,16,47,26.30
2020,01,20,16,48,26.30
2020,01,20,16,49,26.30
2020,01,20,16,50,26.30
2020,01,20,16,51,26.20
2020,01,20,16,52,26.20
2020,01,20,16,53,26.20
2020,01,20,16,54,26.20
2020,01,20,16,55,26.20
2020,01,20,16,56,26.20
2020,01,20,16,57,26.20
2020,01,20,16,58,26.20
2020,01,20,16,59,26.20
2020,01,20,17,00,26.10
2020,01,20,17,01,26.10
2020,01,20,17,02,26.00
2020,01,20,17,03,26.00
2020,01,20,17,04,26.00
2020,01,20,17,05,25.90
2020,01,20,17,06,25.90
2020,01,20,17,07,25.90
2020,01,20,17,08,25.90
2020,01,20,17,09,25.90
2020,01,20,17,10,25.90
2020,01,20,17,11,25.90
2020,01,20,17,12,25.90
2020,01,20,17,13,25.90
2020,01,20,17,14,25.80
2020,01,20,17,15,25.80
2020,01,20,17,16,25.90
2020,01,20,17,17,25.90
2020,01,20,17,18,25.90
2020,01,20,17,19,26.00